Regional Weather Roundup
Issued by NWS Wakefield, VA

Home | Current Version | Previous Version | Text Only | Print | Product List | Glossary Off
Versions: 1 2 3 4 5 6 7 8 9 10 11 12 13 14 15 16 17 18 19 20 21 22 23 24 25 26 27 28 29 30 31 32 33 34 35 36 37 38 39 40 41 42 43 44 45 46 47 48 49 50

000
ASUS41 KAKQ 200010
RWRAKQ

REGIONAL WEATHER ROUNDUP
NATIONAL WEATHER SERVICE WAKEFIELD VA
800 PM EDT TUE AUG 19 2014

Note: "fair" indicates few or no clouds below 12,000 feet with no
significant weather and/or obstructions to visibility. * = Denotes
station may not report precipitation (e.g., rain,snow,etc.),
thunder or fog.

VAZ042-051-052>054-056-200100-
NORTHERN VIRGINIA

CITY           SKY/WX    TMP DP  RH WIND       PRES   REMARKS
WASH NATIONAL  MOCLDY    81  65  58 E5        29.87R
DULLES         MOCLDY    77  66  68 SE3       29.88R
FORT BELVOIR   PTCLDY    77  68  75 SE2       29.88R
QUANTICO       CLOUDY    80  69  69 CALM      29.88R
FREDERICKSBRG* CLEAR     78  71  79 CALM      29.86R
STAFFORD*      PTCLDY    73  73 100 CALM      29.91R
WARRENTON      PTCLDY    77  75  96 CALM      29.88R
CULPEPER*      MOCLDY   N/A N/A N/A CALM      29.88R
MANASSAS*      NOT AVBL
LEESBURG*      MOCLDY    81  70  69 SE5       29.89R
WINCHESTER     CLOUDY    77  68  73 SE6       29.89R
$$

VAZ048-049-060>072-079>083-200100-
CENTRAL AND SOUTH CENTRAL VIRGINIA...AND NORTH CENTRAL NORTH CAROLINA

CITY           SKY/WX    TMP DP  RH WIND       PRES   REMARKS
RICHMOND       MOCLDY    78  71  79 E5        29.86R
CHESTERFIELD*  PTCLDY   N/A N/A N/A CALM      29.87R
HANOVER        PTCLDY    75  73  93 CALM      29.87R
TAPPAHANNOCK*  PTCLDY    77  70  78 E3        29.87R
CHARLOTTSVILLE CLOUDY    78  69  73 E7        29.89R
ORANGE*        MOCLDY    75  68  78 CALM      29.89S
LOUISA*        PTCLDY    73  72  94 SE3       29.87R
FARMVILLE*     CLEAR     79  70  73 CALM      29.85R
SOUTH HILL*    MOCLDY    79  73  83 CALM      29.91R
ROANOKE RAPIDS CLOUDY    77  72  83 NE6       29.84R
RALEIGH        MOCLDY    79  70  74 CALM      29.85R
$$

VAZ088>098-200100-
SOUTHEAST VIRGINIA

CITY           SKY/WX    TMP DP  RH WIND       PRES   REMARKS
NORFOLK        MOCLDY    77  72  84 NE9       29.83S
VIRGINIA BEACH CLOUDY    77  73  87 NE9       29.82S
NORFOLK NAVAL  MOCLDY    78  72  81 NE13      29.85S
WEST POINT*    PTCLDY    78  72  82 NE5       29.87R
NEWPORT NEWS   MOCLDY    79  73  82 NE9       29.85R
LANGLEY AFB    MOCLDY    77  77 100 NE17      29.84S
FORT EUSTIS    MOCLDY    76  76  99 E6        29.83S
WILLIAMSBURG*  PTCLDY    77  73  88 CALM      29.86S
FRANKLIN*      PTCLDY    75  72  88 CALM      29.85R
WAKEFIELD      PTCLDY    77  72  84 VRB3      29.85S
$$

VAZ020-022-025-037-045-200100-
WESTERN AND SOUTHWEST VIRGINIA

CITY           SKY/WX    TMP DP  RH WIND       PRES   REMARKS
STAUNTON*      CLOUDY    74  68  79 CALM      29.93R
HOT SPRINGS VA NOT AVBL
LYNCHBURG      PTCLDY    75  71  87 CALM      29.90R
DANVILLE       PTCLDY    77  72  84 CALM      29.87R
MARTINSVILLE   PTCLDY    76  75  96 CALM      29.91R
ROANOKE        MOCLDY    78  69  73 CALM      29.92R
BLACKSBURG     PTCLDY    72  72 100 CALM      29.97R
DUBLIN*        PTCLDY    71  70  96 CALM      29.96R
MARION*        PTCLDY    72  68  87 W3        30.00R
HILLSVILLE*    PTCLDY    70  67  90 CALM      29.98R
RICHLANDS*     MOCLDY    76  69  79 SW5       29.98R
WISE*          PTCLDY    73  64  73 SW5       30.00R
ABINGDON*      CLEAR     73  72  95 CALM      29.95R
$$

MDZ021>025-VAZ099-100-200100-
SOUTHERN MARYLAND AND THE DELMARVA PENINSULA

CITY           SKY/WX    TMP DP  RH WIND       PRES   REMARKS
PATUXENT RIVER PTCLDY    77  69  76 E8        29.86R
BAY BRIDGE APT   N/A     77  61  57 E7        29.87S
LEONARDTOWN    CLEAR     75  68  78 CALM      29.88S
DOVER          CLEAR     73  67  83 SE3       29.87S
GEORGETOWN     CLEAR     73  63  70 E6        29.89R
EASTON         PTCLDY    77  66  69 E5        29.92R
CAMBRIDGE      CLEAR     77  64  65 E5        29.87R
SALISBURY      PTCLDY    75  65  70 E5        29.88R
OCEAN CITY     CLEAR     74  65  73 E8        29.88R
WALLOPS ISLAND CLEAR     75  67  76 E15       29.87S
ACCOMACK*      PTCLDY    72  68  88 NE6       29.86R
$$

NCZ012>017-030>032-200100-
EASTERN NORTH CAROLINA

CITY           SKY/WX    TMP DP  RH WIND       PRES   REMARKS
ELIZABETH CITY MOCLDY    78  74  87 N6        29.83R
AHOSKIE*       PTCLDY    75  72  90 CALM      29.84R
EDENTON*       MOCLDY    79  73  81 CALM      29.82S
CURRITUCK*     CLOUDY    78  71  78 N8        29.83R
KILL DEVIL HLS PTCLDY    78  74  88 CALM      29.80S
MANTEO         CLEAR     79  73  83 CALM      29.82R
CAPE HATTERAS  PTCLDY    81  75  82 NW3       29.82R
GOLDSBORO      PTCLDY    83  77  82 N2        29.81S
WASHINGTON     CLEAR     79  73  82 CALM      29.83R
GREENVILLE     PTCLDY    79  75  89 CALM      29.86R
NEW BERN       CLEAR     80  75  84 CALM      29.84R
WILMINGTON     TSTM      75  73  93 N13       29.85R FOG
$$

VAZ048-200100-
ELSEWHERE

CITY           SKY/WX    TMP DP  RH WIND       PRES   REMARKS
HARRISBURG PA  CLOUDY    77  67  71 S3        29.87R
BALTIMORE      MOCLDY    77  63  61 E5        29.87R
ANNAPOLIS      MOCLDY    78  65  63 E7        29.86S
ANDREWS AFB    MOCLDY    76  66  71 NE3       29.88R
WILMINGTON DE  PTCLDY    77  66  68 S12       29.89R
PHILADELPHIA   MOCLDY    79  65  62 S7        29.88R
WILDWOOD NJ*   CLEAR     73  63  68 E6        29.90R
ATLANTIC CITY  CLEAR     70  63  78 E5        29.90R
HENDERSON NC   MOCLDY    78  71  77 CALM      29.87R
GREENSBORO     MOCLDY    79  70  74 CALM      29.88R
ROCKY MOUNT    PTCLDY    78  74  87 CALM      29.84R
FAYETTEVILLE   MOCLDY    78  71  79 S5        29.83F
CHARLOTTE      MOCLDY    77  72  84 SW5       29.89R
$$

VAZ100-200100-
MARINE

STATION/POSITION TIME  TEMP    WIND        PRES    WAVE   SWELL
                       AIR SEA DIR/SP/G            HT/PER HT/PER
                 (UTC) (F)     (DEG/KT/KT) (MB)    (FT/S) (FT/S)
44066 TX TWR #4  0000   73 75   80/ 10/ 12 1012.6R   2/10   2/10
CAPE MAY NJ      0000   74 79   90/  3/  6 1011.4F
LEWES DE         0000   74 76  110/  6/  7 1011.5F
15NM E FENWICK I 0000   75 75              1011.5R   4/ 6
OCEAN-CITY-INLET 0000   75 75   80/  7/ 10 1011.2F
WACHAPREAGUE VA  0000   75 80   50/ 12/ 15 1010.9R
THOMAS POINT MD  0000   78 78   90/ 10/ 11 1011.9R
GOOSES REEF MD   0000   79     120/ 10/ 12 1011.7S
COVE POINT MD    0000   78     120/  8/  9 1011.1S
SOLOMONS ISLAND  0000      80                N/A
BISHOPS HEAD MD  0000   77 80   90/  9/ 13 1010.8R
PINEY POINT MD   0000          120/ 10/ 12   N/A
POTOMAC MD       0000   78     120/ 10/ 12 1010.5R
CAMBRIDGE MD     0000   78 78   90/  8/  9 1011.2R
LEWISETTA VA     0000   78 80  100/ 11/ 13 1010.8S
RAPPAHANNOCK LGT 0000           50/ 15/ 17 1011.3S
STINGRAY PT      0000   77      90/ 12/ 16 1011.6S
YORK RVR RNG VA  0000   77      70/ 16/ 18 1010.1F
YORKTOWN VA      0000   77 80   60/ 13/ 14 1010.4S
JAMESTOWN VA     0000   74      80/  4/  8   N/A
DOMINION TERM VA 0000   78      50/  8/ 13 1010.4S
KIPTOPEKE VA     0000      82   70/  8/ 13   N/A
CHES BAY BRIDGE  0000   77 76   30/ 17/ 20 1009.7S
CAPE HENRY VA    0000   77      40/ 17/ 19 1009.1R
CHESAPEAKE LGHT  2300   76      40/ 13/ 13 1010.4R
WILLOUBY STN VA  0000   77      60/ 14/ 15 1009.2F
S CRANEY ISL VA  0000           30/ 13/ 15 1009.9S
CAPE HENRY BUOY  2300      78                N/A     3/ 6
1ST LANDING BUOY 0000   77      50/ 14/ 16 1010.1R
CAPE CHARLES BUO 0000      77                N/A     3/ 6   2/ 6
OFFSHORE WE BUOY 0000      77                N/A     3/ 6   2/ 6
64NM E OF VA BCH 0000   77 79   20/  8/  8 1009.3R   3/ 6   3/ 6
DUCK PIER NC     0000   77 78  360/ 11/ 12 1008.8R
44056 DUCK FRF   0000                        N/A     1/ 8
OREGON INLET NC  0000   79 82  360/  4/  5 1009.6R
HATTERAS NC      0000   82 82  290/  6/  7 1010.1R
DIAMOND SHLS NC  0000   80     220/  8/ 10 1009.6R   3/ 7   3/ 7
CAPE LOOKOUT NC  2300   82     230/  8/ 12 1009.5F
$$



USA.gov is the U.S. government's official web portal to all federal, state and local government web resources and services.